Time,TemperatureF,DewpointF,PressureIn,WindDirection,WindDirectionDegrees,WindSpeedMPH,WindSpeedGustMPH,Humidity,HourlyPrecipIn,Conditions,Clouds,dailyrainin,SoftwareType,DateUTC
2013-01-02 00:00:00,31.8,23.5,30.00,NE,54,0.0,0.0,71,0.00,,,0.00,Weather View 32 v70,2013-01-02 08:00:00,
2013-01-02 00:10:00,31.6,23.3,30.00,NE,54,0.0,0.0,71,0.00,,,0.00,Weather View 32 v70,2013-01-02 08:10:00,
2013-01-02 00:15:00,31.6,23.3,30.00,NE,54,0.0,0.0,71,0.00,,,0.00,Weather View 32 v70,2013-01-02 08:15:00,
2013-01-02 00:20:00,31.5,23.1,30.00,NE,54,0.0,0.0,71,0.00,,,0.00,Weather View 32 v70,2013-01-02 08:20:00,
2013-01-02 00:30:00,31.8,23.5,30.00,NE,54,0.0,0.0,71,0.00,,,0.00,Weather View 32 v70,2013-01-02 08:30:00,
2013-01-02 00:35:00,31.8,23.5,30.00,NE,54,0.0,0.0,71,0.00,,,0.00,Weather View 32 v70,2013-01-02 08:35:00,
2013-01-02 00:40:00,31.6,23.0,30.00,NE,54,0.0,0.0,70,0.00,,,0.00,Weather View 32 v70,2013-01-02 08:40:00,
2013-01-02 00:45:00,31.6,23.0,30.00,NE,54,0.0,0.0,70,0.00,,,0.00,Weather View 32 v70,2013-01-02 08:45:00,
2013-01-02 00:50:00,31.5,22.8,30.00,NE,54,0.0,0.0,70,0.00,,,0.00,Weather View 32 v70,2013-01-02 08:50:00,
2013-01-02 00:55:00,31.5,22.8,30.00,NE,54,0.0,0.0,70,0.00,,,0.00,Weather View 32 v70,2013-01-02 08:55:00,
2013-01-02 01:05:00,31.5,22.5,30.00,NE,54,0.0,0.0,69,0.00,,,0.00,Weather View 32 v70,2013-01-02 09:05:00,
2013-01-02 01:10:00,31.3,22.3,29.97,NE,54,0.0,0.0,69,0.00,,,0.00,Weather View 32 v70,2013-01-02 09:10:00,
2013-01-02 01:20:00,31.3,22.3,29.97,NE,54,0.0,0.0,69,0.00,,,0.00,Weather View 32 v70,2013-01-02 09:20:00,
2013-01-02 01:25:00,31.1,22.1,29.97,NE,54,0.0,0.0,69,0.00,,,0.00,Weather View 32 v70,2013-01-02 09:25:00,
2013-01-02 01:30:00,31.1,21.8,29.97,NE,54,0.0,0.0,68,0.00,,,0.00,Weather View 32 v70,2013-01-02 09:30:00,
2013-01-02 01:35:00,31.1,21.8,29.97,NE,54,0.0,0.0,68,0.00,,,0.00,Weather View 32 v70,2013-01-02 09:35:00,
2013-01-02 01:45:00,31.1,21.4,29.97,NE,54,0.0,0.0,67,0.00,,,0.00,Weather View 32 v70,2013-01-02 09:45:00,
2013-01-02 01:50:00,31.1,21.1,29.97,NE,54,0.0,0.0,66,0.00,,,0.00,Weather View 32 v70,2013-01-02 09:50:00,
2013-01-02 01:55:00,31.1,21.1,29.97,NE,54,0.0,0.0,66,0.00,,,0.00,Weather View 32 v70,2013-01-02 09:55:00,
2013-01-02 02:05:00,30.9,20.5,29.97,NE,54,0.0,0.0,65,0.00,,,0.00,Weather View 32 v70,2013-01-02 10:05:00,
2013-01-02 02:10:00,30.9,20.5,29.97,NE,54,0.0,0.0,65,0.00,,,0.00,Weather View 32 v70,2013-01-02 10:10:00,
2013-01-02 02:15:00,31.1,20.3,29.97,NE,54,0.0,0.0,64,0.00,,,0.00,Weather View 32 v70,2013-01-02 10:15:00,
2013-01-02 02:20:00,31.1,20.3,29.97,NE,54,0.0,0.0,64,0.00,,,0.00,Weather View 32 v70,2013-01-02 10:20:00,
2013-01-02 02:30:00,30.9,19.4,29.97,NE,54,0.0,0.0,62,0.00,,,0.00,Weather View 32 v70,2013-01-02 10:30:00,
2013-01-02 02:35:00,30.7,19.3,29.97,NE,54,0.0,0.0,62,0.00,,,0.00,Weather View 32 v70,2013-01-02 10:35:00,
2013-01-02 02:40:00,30.7,19.3,29.97,NE,54,0.0,0.0,62,0.00,,,0.00,Weather View 32 v70,2013-01-02 10:40:00,
2013-01-02 02:45:00,30.7,19.3,29.97,NE,54,0.0,0.0,62,0.00,,,0.00,Weather View 32 v70,2013-01-02 10:45:00,
2013-01-02 02:55:00,30.6,18.7,29.97,NE,54,0.0,0.0,61,0.00,,,0.00,Weather View 32 v70,2013-01-02 10:55:00,
2013-01-02 03:00:00,30.4,18.1,29.97,NE,54,0.0,0.0,60,0.00,,,0.00,Weather View 32 v70,2013-01-02 11:00:00,
2013-01-02 03:05:00,30.2,18.0,29.97,NE,54,0.0,0.0,60,0.00,,,0.00,Weather View 32 v70,2013-01-02 11:05:00,
2013-01-02 03:15:00,30.6,18.7,29.97,NE,54,0.0,0.0,61,0.00,,,0.00,Weather View 32 v70,2013-01-02 11:15:00,
2013-01-02 03:20:00,30.7,18.9,29.97,NE,54,0.0,0.0,61,0.00,,,0.00,Weather View 32 v70,2013-01-02 11:20:00,
2013-01-02 03:25:00,30.6,18.3,29.94,NE,54,0.0,0.0,60,0.00,,,0.00,Weather View 32 v70,2013-01-02 11:25:00,
2013-01-02 03:30:00,30.7,18.5,29.94,NE,54,0.0,0.0,60,0.00,,,0.00,Weather View 32 v70,2013-01-02 11:30:00,
2013-01-02 03:40:00,30.7,18.5,29.94,NE,54,0.0,0.0,60,0.00,,,0.00,Weather View 32 v70,2013-01-02 11:40:00,
2013-01-02 03:45:00,30.7,18.5,29.94,NE,54,0.0,0.0,60,0.00,,,0.00,Weather View 32 v70,2013-01-02 11:45:00,
2013-01-02 03:50:00,30.7,18.1,29.94,NE,54,0.0,0.0,59,0.00,,,0.00,Weather View 32 v70,2013-01-02 11:50:00,
2013-01-02 03:55:00,30.7,18.1,29.94,NE,54,0.0,0.0,59,0.00,,,0.00,Weather View 32 v70,2013-01-02 11:55:00,
2013-01-02 04:05:00,30.6,17.9,29.94,NE,54,0.0,0.0,59,0.00,,,0.00,Weather View 32 v70,2013-01-02 12:05:00,
2013-01-02 04:10:00,30.7,18.1,29.94,NE,54,0.0,0.0,59,0.00,,,0.00,Weather View 32 v70,2013-01-02 12:10:00,
2013-01-02 04:15:00,30.9,18.3,29.94,NE,54,0.0,3.0,59,0.00,,,0.00,Weather View 32 v70,2013-01-02 12:15:00,
2013-01-02 04:20:00,30.9,18.3,29.94,NE,54,0.0,3.0,59,0.00,,,0.00,Weather View 32 v70,2013-01-02 12:20:00,
2013-01-02 04:30:00,31.1,18.4,29.94,NE,54,0.0,3.0,59,0.00,,,0.00,Weather View 32 v70,2013-01-02 12:30:00,
2013-01-02 04:35:00,31.1,18.8,29.94,NE,54,0.0,3.0,60,0.00,,,0.00,Weather View 32 v70,2013-01-02 12:35:00,
2013-01-02 04:40:00,30.9,18.7,29.94,NE,54,0.0,3.0,60,0.00,,,0.00,Weather View 32 v70,2013-01-02 12:40:00,
2013-01-02 04:45:00,31.1,19.2,29.94,NE,54,0.0,3.0,61,0.00,,,0.00,Weather View 32 v70,2013-01-02 12:45:00,
2013-01-02 04:55:00,31.1,19.6,29.94,NE,54,0.0,3.0,62,0.00,,,0.00,Weather View 32 v70,2013-01-02 12:55:00,
2013-01-02 05:00:00,30.9,19.4,29.94,NE,54,0.0,3.0,62,0.00,,,0.00,Weather View 32 v70,2013-01-02 13:00:00,
2013-01-02 05:10:00,30.9,19.8,29.94,NE,54,0.0,3.0,63,0.00,,,0.00,Weather View 32 v70,2013-01-02 13:10:00,
2013-01-02 05:15:00,30.7,19.6,29.94,NE,54,0.0,2.0,63,0.00,,,0.00,Weather View 32 v70,2013-01-02 13:15:00,
2013-01-02 05:20:00,30.7,19.6,29.94,NE,54,0.0,0.0,63,0.00,,,0.00,Weather View 32 v70,2013-01-02 13:20:00,
2013-01-02 05:25:00,30.6,19.5,29.94,NE,54,0.0,0.0,63,0.00,,,0.00,Weather View 32 v70,2013-01-02 13:25:00,
2013-01-02 05:30:00,30.6,19.8,29.94,NE,54,0.0,0.0,64,0.00,,,0.00,Weather View 32 v70,2013-01-02 13:30:00,
2013-01-02 05:40:00,30.6,19.8,29.94,NE,54,0.0,0.0,64,0.00,,,0.00,Weather View 32 v70,2013-01-02 13:40:00,
2013-01-02 05:45:00,30.4,19.7,29.94,NE,54,0.0,0.0,64,0.00,,,0.00,Weather View 32 v70,2013-01-02 13:45:00,
2013-01-02 05:50:00,30.4,19.7,29.94,NE,54,0.0,0.0,64,0.00,,,0.00,Weather View 32 v70,2013-01-02 13:50:00,
2013-01-02 05:55:00,30.2,19.5,29.94,NE,54,3.0,3.0,64,0.00,,,0.00,Weather View 32 v70,2013-01-02 13:55:00,
2013-01-02 06:05:00,30.4,20.0,29.94,NE,54,0.0,3.0,65,0.00,,,0.00,Weather View 32 v70,2013-01-02 14:05:00,
2013-01-02 06:10:00,30.4,19.7,29.94,NE,54,3.0,3.0,64,0.00,,,0.00,Weather View 32 v70,2013-01-02 14:10:00,
2013-01-02 06:20:00,30.6,20.2,29.94,NE,54,2.0,3.0,65,0.00,,,0.00,Weather View 32 v70,2013-01-02 14:20:00,
2013-01-02 06:25:00,30.6,20.2,29.94,NE,54,0.0,3.0,65,0.00,,,0.00,Weather View 32 v70,2013-01-02 14:25:00,
2013-01-02 06:30:00,30.4,19.7,29.94,NE,54,0.0,3.0,64,0.00,,,0.00,Weather View 32 v70,2013-01-02 14:30:00,
2013-01-02 06:35:00,30.2,19.5,29.94,NE,54,0.0,3.0,64,0.00,,,0.00,Weather View 32 v70,2013-01-02 14:35:00,
2013-01-02 06:45:00,30.2,19.5,29.91,NE,54,0.0,3.0,64,0.00,,,0.00,Weather View 32 v70,2013-01-02 14:45:00,
2013-01-02 06:50:00,30.2,19.5,29.91,NE,54,0.0,3.0,64,0.00,,,0.00,Weather View 32 v70,2013-01-02 14:50:00,
2013-01-02 06:55:00,30.2,19.5,29.91,NE,54,0.0,3.0,64,0.00,,,0.00,Weather View 32 v70,2013-01-02 14:55:00,
2013-01-02 07:00:00,30.0,19.3,29.91,NE,54,0.0,3.0,64,0.00,,,0.00,Weather View 32 v70,2013-01-02 15:00:00,
2013-01-02 07:10:00,29.8,18.8,29.94,NE,54,0.0,3.0,63,0.00,,,0.00,Weather View 32 v70,2013-01-02 15:10:00,
2013-01-02 07:15:00,30.0,18.9,29.94,NE,54,0.0,3.0,63,0.00,,,0.00,Weather View 32 v70,2013-01-02 15:15:00,
2013-01-02 07:20:00,29.8,18.8,29.94,NE,54,0.0,3.0,63,0.00,,,0.00,Weather View 32 v70,2013-01-02 15:20:00,
2013-01-02 07:25:00,29.8,18.8,29.94,NE,54,0.0,3.0,63,0.00,,,0.00,Weather View 32 v70,2013-01-02 15:25:00,
2013-01-02 07:35:00,29.8,18.8,29.94,NE,54,0.0,2.0,63,0.00,,,0.00,Weather View 32 v70,2013-01-02 15:35:00,
2013-01-02 07:40:00,29.8,18.8,29.94,NE,54,0.0,2.0,63,0.00,,,0.00,Weather View 32 v70,2013-01-02 15:40:00,
2013-01-02 07:45:00,29.8,19.1,29.94,NE,54,0.0,2.0,64,0.00,,,0.00,Weather View 32 v70,2013-01-02 15:45:00,
2013-01-02 07:50:00,30.0,19.3,29.94,NE,54,0.0,2.0,64,0.00,,,0.00,Weather View 32 v70,2013-01-02 15:50:00,
2013-01-02 07:59:00,30.0,19.3,29.91,NE,54,0.0,2.0,64,0.00,,,0.00,Weather View 32 v70,2013-01-02 15:59:00,
2013-01-02 08:05:00,30.0,19.7,29.91,NE,54,0.0,3.0,65,0.00,,,0.00,Weather View 32 v70,2013-01-02 16:05:00,
2013-01-02 08:15:00,30.0,19.7,29.91,NE,54,0.0,4.0,65,0.00,,,0.00,Weather View 32 v70,2013-01-02 16:15:00,
2013-01-02 08:20:00,30.2,19.8,29.91,NE,54,0.0,4.0,65,0.00,,,0.00,Weather View 32 v70,2013-01-02 16:20:00,
2013-01-02 08:25:00,30.0,20.0,29.91,NE,54,0.0,4.0,66,0.00,,,0.00,Weather View 32 v70,2013-01-02 16:25:00,
2013-01-02 08:30:00,30.0,20.0,29.91,NE,54,0.0,4.0,66,0.00,,,0.00,Weather View 32 v70,2013-01-02 16:30:00,
2013-01-02 08:35:00,29.8,19.5,29.91,NE,54,0.0,4.0,65,0.00,,,0.00,Weather View 32 v70,2013-01-02 16:35:00,
2013-01-02 08:45:00,30.2,20.2,29.94,NE,54,0.0,4.0,66,0.00,,,0.00,Weather View 32 v70,2013-01-02 16:45:00,
2013-01-02 08:50:00,30.0,20.0,29.94,NE,54,0.0,4.0,66,0.00,,,0.00,Weather View 32 v70,2013-01-02 16:50:00,
2013-01-02 08:55:00,30.0,20.0,29.94,NE,54,0.0,4.0,66,0.00,,,0.00,Weather View 32 v70,2013-01-02 16:55:00,
2013-01-02 09:05:00,30.2,20.6,29.94,NE,54,0.0,4.0,67,0.00,,,0.00,Weather View 32 v70,2013-01-02 17:05:00,
2013-01-02 09:10:00,30.2,20.6,29.94,NE,54,0.0,4.0,67,0.00,,,0.00,Weather View 32 v70,2013-01-02 17:10:00,
2013-01-02 09:15:00,30.2,20.6,29.94,NE,54,0.0,0.0,67,0.00,,,0.00,Weather View 32 v70,2013-01-02 17:15:00,
2013-01-02 09:20:00,30.2,20.6,29.94,NE,54,0.0,0.0,67,0.00,,,0.00,Weather View 32 v70,2013-01-02 17:20:00,
2013-01-02 09:30:00,30.4,20.7,29.94,NE,54,0.0,0.0,67,0.00,,,0.00,Weather View 32 v70,2013-01-02 17:30:00,
2013-01-02 09:35:00,30.4,20.7,29.94,NE,54,0.0,0.0,67,0.00,,,0.00,Weather View 32 v70,2013-01-02 17:35:00,
2013-01-02 09:40:00,30.4,20.7,29.94,NE,54,0.0,0.0,67,0.00,,,0.00,Weather View 32 v70,2013-01-02 17:40:00,
2013-01-02 09:45:00,30.4,21.1,29.94,NE,54,0.0,0.0,68,0.00,,,0.00,Weather View 32 v70,2013-01-02 17:45:00,
2013-01-02 09:50:00,30.6,21.3,29.94,NE,54,0.0,0.0,68,0.00,,,0.00,Weather View 32 v70,2013-01-02 17:50:00,
2013-01-02 10:00:00,30.9,21.6,29.94,NE,54,0.0,0.0,68,0.00,,,0.00,Weather View 32 v70,2013-01-02 18:00:00,
2013-01-02 10:09:00,31.1,22.1,29.94,NE,54,0.0,3.0,69,0.00,,,0.00,Weather View 32 v70,2013-01-02 18:09:00,
2013-01-02 10:15:00,31.3,22.3,29.94,NE,54,0.0,3.0,69,0.00,,,0.00,Weather View 32 v70,2013-01-02 18:15:00,
2013-01-02 10:20:00,31.5,22.5,29.94,NE,54,0.0,3.0,69,0.00,,,0.00,Weather View 32 v70,2013-01-02 18:20:00,
2013-01-02 10:25:00,31.6,23.0,29.94,NE,54,0.0,3.0,70,0.00,,,0.00,Weather View 32 v70,2013-01-02 18:25:00,
2013-01-02 10:30:00,31.8,23.1,29.94,NE,54,0.0,3.0,70,0.00,,,0.00,Weather View 32 v70,2013-01-02 18:30:00,
2013-01-02 10:35:00,32.0,23.3,29.94,NE,54,0.0,3.0,70,0.00,,,0.00,Weather View 32 v70,2013-01-02 18:35:00,
2013-01-02 10:45:00,32.5,24.2,29.94,NE,54,0.0,3.0,71,0.00,,,0.00,Weather View 32 v70,2013-01-02 18:45:00,
2013-01-02 10:50:00,32.7,24.4,29.94,NE,54,0.0,3.0,71,0.00,,,0.00,Weather View 32 v70,2013-01-02 18:50:00,
2013-01-02 10:55:00,33.1,24.7,29.94,NE,54,0.0,3.0,71,0.00,,,0.00,Weather View 32 v70,2013-01-02 18:55:00,
2013-01-02 11:00:00,33.4,25.0,29.94,NE,55,0.0,3.0,71,0.00,,,0.00,Weather View 32 v70,2013-01-02 19:00:00,
2013-01-02 11:10:00,34.0,25.6,29.94,NE,55,0.0,2.0,71,0.00,,,0.00,Weather View 32 v70,2013-01-02 19:10:00,
2013-01-02 11:15:00,34.3,25.9,29.94,NE,55,0.0,0.0,71,0.00,,,0.00,Weather View 32 v70,2013-01-02 19:15:00,
2013-01-02 11:20:00,34.5,26.1,29.94,NE,55,0.0,0.0,71,0.00,,,0.00,Weather View 32 v70,2013-01-02 19:20:00,
2013-01-02 11:25:00,34.7,25.9,29.94,NE,55,0.0,0.0,70,0.00,,,0.00,Weather View 32 v70,2013-01-02 19:25:00,
2013-01-02 11:35:00,35.1,25.2,29.94,NE,55,0.0,0.0,67,0.00,,,0.00,Weather View 32 v70,2013-01-02 19:35:00,
2013-01-02 11:40:00,35.4,24.8,29.94,NE,55,0.0,0.0,65,0.00,,,0.00,Weather View 32 v70,2013-01-02 19:40:00,
2013-01-02 11:50:00,35.4,23.7,29.94,NE,55,0.0,0.0,62,0.00,,,0.00,Weather View 32 v70,2013-01-02 19:50:00,
2013-01-02 12:00:00,35.6,20.6,29.94,NE,55,0.0,0.0,54,0.00,,,0.00,Weather View 32 v70,2013-01-02 20:00:00,
2013-01-02 12:05:00,35.8,19.4,29.94,NE,55,0.0,0.0,51,0.00,,,0.00,Weather View 32 v70,2013-01-02 20:05:00,
2013-01-02 12:15:00,36.0,17.2,29.91,WNW,302,2.0,6.0,46,0.00,,,0.00,Weather View 32 v70,2013-01-02 20:15:00,
2013-01-02 12:20:00,36.3,15.4,29.91,West,268,4.0,7.0,42,0.00,,,0.00,Weather View 32 v70,2013-01-02 20:20:00,
2013-01-02 12:25:00,36.9,15.9,29.91,West,271,3.0,7.0,42,0.00,,,0.00,Weather View 32 v70,2013-01-02 20:25:00,
2013-01-02 12:30:00,37.0,16.0,29.91,WNW,284,3.0,7.0,42,0.00,,,0.00,Weather View 32 v70,2013-01-02 20:30:00,
2013-01-02 12:40:00,37.0,16.0,29.91,WNW,292,0.0,7.0,42,0.00,,,0.00,Weather View 32 v70,2013-01-02 20:40:00,
2013-01-02 12:45:00,36.9,15.9,29.91,WNW,292,2.0,7.0,42,0.00,,,0.00,Weather View 32 v70,2013-01-02 20:45:00,
2013-01-02 12:50:00,37.2,15.7,29.91,WNW,292,4.0,7.0,41,0.00,,,0.00,Weather View 32 v70,2013-01-02 20:50:00,
2013-01-02 12:55:00,37.4,15.8,29.91,WNW,292,3.0,7.0,41,0.00,,,0.00,Weather View 32 v70,2013-01-02 20:55:00,
2013-01-02 13:00:00,37.4,15.8,29.91,WNW,292,4.0,7.0,41,0.00,,,0.00,Weather View 32 v70,2013-01-02 21:00:00,
2013-01-02 13:10:00,37.6,14.8,29.91,WNW,292,0.0,7.0,39,0.00,,,0.00,Weather View 32 v70,2013-01-02 21:10:00,
2013-01-02 13:15:00,37.4,15.3,29.91,WNW,292,2.0,7.0,40,0.00,,,0.00,Weather View 32 v70,2013-01-02 21:15:00,
2013-01-02 13:20:00,37.6,14.8,29.91,WNW,282,3.0,6.0,39,0.00,,,0.00,Weather View 32 v70,2013-01-02 21:20:00,
2013-01-02 13:30:00,37.4,14.7,29.91,WNW,282,3.0,5.0,39,0.00,,,0.00,Weather View 32 v70,2013-01-02 21:30:00,
2013-01-02 13:35:00,37.6,14.8,29.91,WNW,282,0.0,5.0,39,0.00,,,0.00,Weather View 32 v70,2013-01-02 21:35:00,
2013-01-02 13:45:00,37.4,14.7,29.91,WNW,282,0.0,5.0,39,0.00,,,0.00,Weather View 32 v70,2013-01-02 21:45:00,
2013-01-02 13:50:00,37.4,14.7,29.91,WNW,282,0.0,5.0,39,0.00,,,0.00,Weather View 32 v70,2013-01-02 21:50:00,
2013-01-02 14:00:00,37.2,15.1,29.91,WNW,282,0.0,5.0,40,0.00,,,0.00,Weather View 32 v70,2013-01-02 22:00:00,
2013-01-02 14:05:00,37.6,14.8,29.91,WNW,282,0.0,5.0,39,0.00,,,0.00,Weather View 32 v70,2013-01-02 22:05:00,
2013-01-02 14:10:00,37.6,15.4,29.88,WNW,282,0.0,5.0,40,0.00,,,0.00,Weather View 32 v70,2013-01-02 22:10:00,
2013-01-02 14:20:00,37.9,15.7,29.88,WNW,282,0.0,5.0,40,0.00,,,0.00,Weather View 32 v70,2013-01-02 22:20:00,
2013-01-02 14:25:00,37.8,15.6,29.88,WNW,282,0.0,5.0,40,0.00,,,0.00,Weather View 32 v70,2013-01-02 22:25:00,
2013-01-02 14:30:00,37.8,15.6,29.88,WNW,282,0.0,4.0,40,0.00,,,0.00,Weather View 32 v70,2013-01-02 22:30:00,
2013-01-02 14:35:00,37.9,15.7,29.88,WNW,282,0.0,4.0,40,0.00,,,0.00,Weather View 32 v70,2013-01-02 22:35:00,
2013-01-02 14:40:00,37.9,15.7,29.88,WNW,282,0.0,4.0,40,0.00,,,0.00,Weather View 32 v70,2013-01-02 22:40:00,
2013-01-02 14:50:00,38.1,15.9,29.88,WNW,282,0.0,4.0,40,0.00,,,0.00,Weather View 32 v70,2013-01-02 22:50:00,
2013-01-02 14:55:00,37.9,15.7,29.88,WNW,282,0.0,4.0,40,0.00,,,0.00,Weather View 32 v70,2013-01-02 22:55:00,
2013-01-02 15:00:00,38.1,15.9,29.88,WNW,282,0.0,4.0,40,0.00,,,0.00,Weather View 32 v70,2013-01-02 23:00:00,
2013-01-02 15:10:00,38.1,15.9,29.88,WNW,282,0.0,3.0,40,0.00,,,0.00,Weather View 32 v70,2013-01-02 23:10:00,
2013-01-02 15:15:00,38.5,15.6,29.88,WNW,282,0.0,3.0,39,0.00,,,0.00,Weather View 32 v70,2013-01-02 23:15:00,
2013-01-02 15:20:00,38.1,15.3,29.88,WNW,282,0.0,3.0,39,0.00,,,0.00,Weather View 32 v70,2013-01-02 23:20:00,
2013-01-02 15:25:00,38.1,15.3,29.88,WNW,282,0.0,4.0,39,0.00,,,0.00,Weather View 32 v70,2013-01-02 23:25:00,
2013-01-02 15:35:00,37.8,15.0,29.88,WNW,282,0.0,4.0,39,0.00,,,0.00,Weather View 32 v70,2013-01-02 23:35:00,
2013-01-02 15:40:00,37.4,14.7,29.88,WNW,282,0.0,4.0,39,0.00,,,0.00,Weather View 32 v70,2013-01-02 23:40:00,
2013-01-02 15:45:00,37.0,14.9,29.88,WNW,282,0.0,4.0,40,0.00,,,0.00,Weather View 32 v70,2013-01-02 23:45:00,
2013-01-02 15:50:00,36.9,14.8,29.88,WNW,282,0.0,4.0,40,0.00,,,0.00,Weather View 32 v70,2013-01-02 23:50:00,
2013-01-02 16:00:00,36.5,15.0,29.88,WNW,282,0.0,4.0,41,0.00,,,0.00,Weather View 32 v70,2013-01-03 00:00:00,
2013-01-02 16:05:00,36.7,15.2,29.88,WNW,282,0.0,4.0,41,0.00,,,0.00,Weather View 32 v70,2013-01-03 00:05:00,
2013-01-02 16:10:00,36.5,15.0,29.88,WNW,282,0.0,4.0,41,0.00,,,0.00,Weather View 32 v70,2013-01-03 00:10:00,
2013-01-02 16:20:00,36.3,14.8,29.88,WNW,282,0.0,4.0,41,0.00,,,0.00,Weather View 32 v70,2013-01-03 00:20:00,
2013-01-02 16:25:00,36.1,14.7,29.88,WNW,282,0.0,4.0,41,0.00,,,0.00,Weather View 32 v70,2013-01-03 00:25:00,
2013-01-02 16:30:00,35.8,14.9,29.88,WNW,282,0.0,3.0,42,0.00,,,0.00,Weather View 32 v70,2013-01-03 00:30:00,
2013-01-02 16:35:00,35.4,15.1,29.88,WNW,282,0.0,0.0,43,0.00,,,0.00,Weather View 32 v70,2013-01-03 00:35:00,
2013-01-02 16:44:00,35.2,15.0,29.88,WNW,282,0.0,0.0,43,0.00,,,0.00,Weather View 32 v70,2013-01-03 00:44:00,
2013-01-02 16:50:00,35.2,15.5,29.88,WNW,282,0.0,0.0,44,0.00,,,0.00,Weather View 32 v70,2013-01-03 00:50:00,
2013-01-02 16:55:00,35.1,15.3,29.88,WNW,282,0.0,0.0,44,0.00,,,0.00,Weather View 32 v70,2013-01-03 00:55:00,
2013-01-02 17:00:00,35.1,15.3,29.88,WNW,282,0.0,0.0,44,0.00,,,0.00,Weather View 32 v70,2013-01-03 01:00:00,
2013-01-02 17:10:00,34.9,15.7,29.88,WNW,282,0.0,0.0,45,0.00,,,0.00,Weather View 32 v70,2013-01-03 01:10:00,
2013-01-02 17:15:00,34.9,15.7,29.88,WNW,282,0.0,0.0,45,0.00,,,0.00,Weather View 32 v70,2013-01-03 01:15:00,
2013-01-02 17:20:00,34.7,15.5,29.88,WNW,282,0.0,0.0,45,0.00,,,0.00,Weather View 32 v70,2013-01-03 01:20:00,
2013-01-02 17:25:00,34.7,15.0,29.88,WNW,282,0.0,0.0,44,0.00,,,0.00,Weather View 32 v70,2013-01-03 01:25:00,
2013-01-02 17:34:00,34.3,14.7,29.88,WNW,282,0.0,0.0,44,0.00,,,0.00,Weather View 32 v70,2013-01-03 01:34:00,
2013-01-02 17:40:00,34.2,14.5,29.88,WNW,282,0.0,0.0,44,0.00,,,0.00,Weather View 32 v70,2013-01-03 01:40:00,
2013-01-02 17:45:00,34.0,13.8,29.88,WNW,282,0.0,0.0,43,0.00,,,0.00,Weather View 32 v70,2013-01-03 01:45:00,
2013-01-02 17:50:00,34.2,13.4,29.88,WNW,282,0.0,0.0,42,0.00,,,0.00,Weather View 32 v70,2013-01-03 01:50:00,
2013-01-02 17:55:00,34.0,13.3,29.85,WNW,282,0.0,0.0,42,0.00,,,0.00,Weather View 32 v70,2013-01-03 01:55:00,
2013-01-02 18:04:00,33.8,13.1,29.85,WNW,282,0.0,0.0,42,0.00,,,0.00,Weather View 32 v70,2013-01-03 02:04:00,
2013-01-02 18:10:00,33.6,13.5,29.88,WNW,282,0.0,0.0,43,0.00,,,0.00,Weather View 32 v70,2013-01-03 02:10:00,
2013-01-02 18:15:00,33.6,14.0,29.88,WNW,282,0.0,0.0,44,0.00,,,0.00,Weather View 32 v70,2013-01-03 02:15:00,
2013-01-02 18:24:00,33.3,14.2,29.88,WNW,282,0.0,0.0,45,0.00,,,0.00,Weather View 32 v70,2013-01-03 02:24:00,
2013-01-02 18:30:00,33.3,13.7,29.88,WNW,282,0.0,0.0,44,0.00,,,0.00,Weather View 32 v70,2013-01-03 02:30:00,
2013-01-02 18:35:00,33.1,13.5,29.88,WNW,282,0.0,0.0,44,0.00,,,0.00,Weather View 32 v70,2013-01-03 02:35:00,
2013-01-02 18:45:00,33.1,13.5,29.88,WNW,282,0.0,0.0,44,0.00,,,0.00,Weather View 32 v70,2013-01-03 02:45:00,
2013-01-02 18:50:00,33.1,13.5,29.88,WNW,282,0.0,0.0,44,0.00,,,0.00,Weather View 32 v70,2013-01-03 02:50:00,
2013-01-02 19:00:00,32.9,12.8,29.88,WNW,282,0.0,0.0,43,0.00,,,0.00,Weather View 32 v70,2013-01-03 03:00:00,
2013-01-02 19:05:00,32.9,12.8,29.85,WNW,282,0.0,0.0,43,0.00,,,0.00,Weather View 32 v70,2013-01-03 03:05:00,
2013-01-02 19:14:00,32.7,13.2,29.85,WNW,282,0.0,0.0,44,0.00,,,0.00,Weather View 32 v70,2013-01-03 03:14:00,
2013-01-02 19:19:00,32.7,13.7,29.85,WNW,282,0.0,0.0,45,0.00,,,0.00,Weather View 32 v70,2013-01-03 03:19:00,
2013-01-02 19:25:00,32.5,13.5,29.85,WNW,282,0.0,0.0,45,0.00,,,0.00,Weather View 32 v70,2013-01-03 03:25:00,
2013-01-02 19:45:00,32.5,13.5,29.85,WNW,282,0.0,0.0,45,0.00,,,0.00,Weather View 32 v70,2013-01-03 03:45:00,
2013-01-02 19:55:00,32.5,14.0,29.85,WNW,282,0.0,0.0,46,0.00,,,0.00,Weather View 32 v70,2013-01-03 03:55:00,
2013-01-02 20:00:00,32.5,14.5,29.85,WNW,282,0.0,0.0,47,0.00,,,0.00,Weather View 32 v70,2013-01-03 04:00:00,
2013-01-02 20:05:00,32.5,15.0,29.85,WNW,282,0.0,0.0,48,0.00,,,0.00,Weather View 32 v70,2013-01-03 04:05:00,
2013-01-02 20:14:00,32.7,16.6,29.85,WNW,282,0.0,0.0,51,0.00,,,0.00,Weather View 32 v70,2013-01-03 04:14:00,
2013-01-02 20:20:00,32.7,17.0,29.85,WNW,282,0.0,0.0,52,0.00,,,0.00,Weather View 32 v70,2013-01-03 04:20:00,
2013-01-02 20:25:00,32.7,17.0,29.85,WNW,282,0.0,0.0,52,0.00,,,0.00,Weather View 32 v70,2013-01-03 04:25:00,
2013-01-02 20:30:00,32.7,17.0,29.85,WNW,282,0.0,0.0,52,0.00,,,0.00,Weather View 32 v70,2013-01-03 04:30:00,
2013-01-02 20:35:00,32.5,16.4,29.85,WNW,282,0.0,0.0,51,0.00,,,0.00,Weather View 32 v70,2013-01-03 04:35:00,
2013-01-02 20:40:00,32.5,16.4,29.85,WNW,282,0.0,0.0,51,0.00,,,0.00,Weather View 32 v70,2013-01-03 04:40:00,
2013-01-02 20:49:00,32.5,15.9,29.85,WNW,282,0.0,0.0,50,0.00,,,0.00,Weather View 32 v70,2013-01-03 04:49:00,
2013-01-02 20:55:00,32.2,15.6,29.85,WNW,282,0.0,0.0,50,0.00,,,0.00,Weather View 32 v70,2013-01-03 04:55:00,
2013-01-02 21:00:00,32.2,15.2,29.85,WNW,282,0.0,0.0,49,0.00,,,0.00,Weather View 32 v70,2013-01-03 05:00:00,
2013-01-02 21:05:00,32.2,14.7,29.85,WNW,282,0.0,0.0,48,0.00,,,0.00,Weather View 32 v70,2013-01-03 05:05:00,
2013-01-02 21:06:00,32.2,14.7,29.85,WNW,282,0.0,0.0,48,0.00,,,0.00,Weather View 32 v70,2013-01-03 05:06:00,
2013-01-02 21:10:00,32.0,14.5,29.83,WNW,282,0.0,0.0,48,0.00,,,0.00,Weather View 32 v70,2013-01-03 05:10:00,
2013-01-02 21:15:00,32.0,14.5,29.83,WNW,282,0.0,0.0,48,0.00,,,0.00,Weather View 32 v70,2013-01-03 05:15:00,
2013-01-02 21:20:00,32.0,14.5,29.83,WNW,282,0.0,0.0,48,0.00,,,0.00,Weather View 32 v70,2013-01-03 05:20:00,
2013-01-02 21:25:00,32.0,14.5,29.85,WNW,282,0.0,0.0,48,0.00,,,0.00,Weather View 32 v70,2013-01-03 05:25:00,
2013-01-02 21:30:00,32.0,14.0,29.85,WNW,282,0.0,0.0,47,0.00,,,0.00,Weather View 32 v70,2013-01-03 05:30:00,
2013-01-02 21:35:00,31.8,13.4,29.85,WNW,282,0.0,0.0,46,0.00,,,0.00,Weather View 32 v70,2013-01-03 05:35:00,
2013-01-02 21:45:00,31.8,13.9,29.85,WNW,282,3.0,3.0,47,0.00,,,0.00,Weather View 32 v70,2013-01-03 05:45:00,
2013-01-02 21:50:00,31.8,13.9,29.85,WNW,282,0.0,3.0,47,0.00,,,0.00,Weather View 32 v70,2013-01-03 05:50:00,
2013-01-02 21:55:00,31.8,14.3,29.85,WNW,282,0.0,3.0,48,0.00,,,0.00,Weather View 32 v70,2013-01-03 05:55:00,
2013-01-02 22:00:00,31.6,14.2,29.85,WNW,282,0.0,3.0,48,0.00,,,0.00,Weather View 32 v70,2013-01-03 06:00:00,
2013-01-02 22:05:00,31.6,14.2,29.85,WNW,282,0.0,3.0,48,0.00,,,0.00,Weather View 32 v70,2013-01-03 06:05:00,
2013-01-02 22:15:00,31.3,13.9,29.85,WNW,282,0.0,3.0,48,0.00,,,0.00,Weather View 32 v70,2013-01-03 06:15:00,
2013-01-02 22:25:00,31.1,13.7,29.85,WNW,282,0.0,3.0,48,0.00,,,0.00,Weather View 32 v70,2013-01-03 06:25:00,
2013-01-02 22:30:00,30.9,13.0,29.85,WNW,282,0.0,3.0,47,0.00,,,0.00,Weather View 32 v70,2013-01-03 06:30:00,
2013-01-02 22:40:00,30.9,13.5,29.85,WNW,282,0.0,3.0,48,0.00,,,0.00,Weather View 32 v70,2013-01-03 06:40:00,
2013-01-02 22:45:00,30.9,14.0,29.85,WNW,282,0.0,3.0,49,0.00,,,0.00,Weather View 32 v70,2013-01-03 06:45:00,
2013-01-02 22:55:00,30.7,14.3,29.85,WNW,282,0.0,3.0,50,0.00,,,0.00,Weather View 32 v70,2013-01-03 06:55:00,
2013-01-02 23:00:00,30.9,14.9,29.85,WNW,282,0.0,2.0,51,0.00,,,0.00,Weather View 32 v70,2013-01-03 07:00:00,
2013-01-02 23:08:00,30.9,14.9,29.85,WNW,282,0.0,2.0,51,0.00,,,0.00,Weather View 32 v70,2013-01-03 07:08:00,
2013-01-02 23:15:00,30.7,15.2,29.83,WNW,282,0.0,0.0,52,0.00,,,0.00,Weather View 32 v70,2013-01-03 07:15:00,
2013-01-02 23:20:00,30.6,14.6,29.83,WNW,282,0.0,0.0,51,0.00,,,0.00,Weather View 32 v70,2013-01-03 07:20:00,
2013-01-02 23:25:00,30.4,14.4,29.83,WNW,282,0.0,0.0,51,0.00,,,0.00,Weather View 32 v70,2013-01-03 07:25:00,
2013-01-02 23:35:00,30.4,14.8,29.83,WNW,282,0.0,0.0,52,0.00,,,0.00,Weather View 32 v70,2013-01-03 07:35:00,
2013-01-02 23:40:00,30.4,14.8,29.83,WNW,282,0.0,0.0,52,0.00,,,0.00,Weather View 32 v70,2013-01-03 07:40:00,
2013-01-02 23:45:00,30.4,15.3,29.83,WNW,282,0.0,0.0,53,0.00,,,0.00,Weather View 32 v70,2013-01-03 07:45:00,
2013-01-02 23:50:00,30.4,15.3,29.83,WNW,282,0.0,0.0,53,0.00,,,0.00,Weather View 32 v70,2013-01-03 07:50:00,
2013-01-02 23:55:00,30.2,15.1,29.83,WNW,282,0.0,0.0,53,0.00,,,0.00,Weather View 32 v70,2013-01-03 07:55:00,